• In Portugal
  • List of Countries
  • For 7 days
  • Water Temperature
  • Satellite Maps
  • Weather Map
  • Weather Widgets
  • user-avatar
    Login

    Hourly Weather Roslavka

    Today, 22 September, Saturday

    Time Temperature Precipitation Wind Pressure Humidity
    00:00 +13°C° 0 mm 1 mps 745 mmHg 71%
    01:00 +13°C° 0 mm 1 mps 745 mmHg 71%
    02:00 +13°C° 0 mm 1 mps 745 mmHg 72%
    03:00 +13°C° 0 mm 1 mps 745 mmHg 71%
    04:00 +13°C° 0 mm 2 mps 745 mmHg 72%
    05:00 +13°C° 0 mm 2 mps 745 mmHg 74%
    06:00 +13°C° 0 mm 2 mps 745 mmHg 75%
    07:00 +14°C° 0.3 mm 2 mps 745 mmHg 79%
    08:00 +14°C° 0.3 mm 2 mps 745 mmHg 83%
    09:00 +15°C° 0 mm 1 mps 745 mmHg 86%
    10:00 +15°C° 0.2 mm 1 mps 745 mmHg 84%
    11:00 +16°C° 0.2 mm 1 mps 745 mmHg 82%
    12:00 +17°C° 0.2 mm 2 mps 745 mmHg 80%
    13:00 +18°C° 0.3 mm 2 mps 744 mmHg 78%
    14:00 +19°C° 0.3 mm 2 mps 744 mmHg 75%
    15:00 +20°C° 0.3 mm 2 mps 744 mmHg 73%
    16:00 +20°C° 0.8 mm 1 mps 744 mmHg 79%
    17:00 +18°C° 0.8 mm 1 mps 744 mmHg 85%
    18:00 +16°C° 0.8 mm 1 mps 744 mmHg 90%
    19:00 +15°C° 0.8 mm 1 mps 745 mmHg 92%
    20:00 +14°C° 0.8 mm 1 mps 745 mmHg 94%
    21:00 +13°C° 0.8 mm 1 mps 745 mmHg 95%
    22:00 +13°C° 0.1 mm 1 mps 746 mmHg 96%
    23:00 +12°C° 0.1 mm 1 mps 746 mmHg 96%

    Tomorrow, 23 September, Sunday

    Time Temperature Precipitation Wind Pressure Humidity
    00:00 +12°C° 0.1 mm 1 mps 746 mmHg 96%
    01:00 +11°C° 0 mm 1 mps 746 mmHg 96%
    02:00 +11°C° 0 mm 1 mps 747 mmHg 96%
    03:00 +11°C° 0 mm 1 mps 747 mmHg 96%
    04:00 +10°C° 0 mm 1 mps 747 mmHg 96%
    05:00 +10°C° 0 mm 1 mps 747 mmHg 95%
    06:00 +10°C° 0 mm 1 mps 747 mmHg 95%
    07:00 +12°C° 0 mm 1 mps 747 mmHg 91%
    08:00 +13°C° 0 mm 1 mps 747 mmHg 87%
    09:00 +15°C° 0 mm 1 mps 747 mmHg 83%
    10:00 +18°C° 0.1 mm 1 mps 747 mmHg 75%
    11:00 +19°C° 0.1 mm 1 mps 746 mmHg 66%
    12:00 +21°C° 0.1 mm 1 mps 746 mmHg 58%
    13:00 +20°C° 0.8 mm 1 mps 746 mmHg 65%
    14:00 +19°C° 0.8 mm 1 mps 745 mmHg 72%
    15:00 +18°C° 0.8 mm 1 mps 745 mmHg 80%
    16:00 +15°C° 1.1 mm 1 mps 744 mmHg 84%
    17:00 +14°C° 1.1 mm 1 mps 744 mmHg 88%
    18:00 +13°C° 1.1 mm 1 mps 744 mmHg 92%
    19:00 +12°C° 0.5 mm 1 mps 744 mmHg 93%
    20:00 +12°C° 0.5 mm 1 mps 744 mmHg 94%
    21:00 +11°C° 0.5 mm 1 mps 745 mmHg 95%
    22:00 +11°C° 0 mm 1 mps 745 mmHg 95%
    23:00 +11°C° 0 mm 1 mps 744 mmHg 95%

    Day after tomorrow, 24 September, Monday

    Time Temperature Precipitation Wind Pressure Humidity
    00:00 +11°C° 0 mm 1 mps 744 mmHg 95%
    01:00 +11°C° 0.1 mm 1 mps 744 mmHg 96%
    02:00 +11°C° 0.1 mm 1 mps 744 mmHg 96%
    03:00 +11°C° 0.1 mm 1 mps 744 mmHg 96%
    04:00 +11°C° 0.1 mm 1 mps 744 mmHg 96%
    05:00 +10°C° 0.1 mm 1 mps 744 mmHg 96%
    06:00 +10°C° 0.1 mm 1 mps 744 mmHg 96%
    07:00 +12°C° 0 mm 1 mps 744 mmHg 92%
    08:00 +13°C° 0 mm 1 mps 744 mmHg 88%
    09:00 +15°C° 0 mm 1 mps 744 mmHg 84%
    10:00 +16°C° 0.1 mm 2 mps 744 mmHg 77%
    11:00 +16°C° 0.1 mm 2 mps 744 mmHg 70%
    12:00 +17°C° 0.1 mm 3 mps 743 mmHg 62%
    13:00 +17°C° 0.3 mm 3 mps 743 mmHg 66%
    14:00 +16°C° 0.3 mm 3 mps 743 mmHg 70%
    15:00 +14°C° 0.3 mm 4 mps 743 mmHg 74%
    16:00 +13°C° 0.1 mm 3 mps 743 mmHg 80%
    17:00 +13°C° 0.1 mm 2 mps 743 mmHg 86%
    18:00 +10°C° 0.1 mm 2 mps 743 mmHg 92%
    19:00 +10°C° 0 mm 2 mps 744 mmHg 93%
    20:00 +9°C° 0 mm 2 mps 744 mmHg 94%
    21:00 +9°C° 0 mm 2 mps 745 mmHg 96%
    22:00 +8°C° 0 mm 2 mps 745 mmHg 96%
    23:00 +8°C° 0 mm 2 mps 745 mmHg 97%

    25 September, Tuesday

    Time Temperature Precipitation Wind Pressure Humidity
    00:00 +7°C° 0 mm 2 mps 745 mmHg 97%
    01:00 +7°C° 0 mm 2 mps 745 mmHg 97%
    02:00 +7°C° 0 mm 2 mps 745 mmHg 98%
    03:00 +7°C° 0 mm 2 mps 745 mmHg 98%
    04:00 +7°C° 0 mm 2 mps 746 mmHg 98%
    05:00 +7°C° 0 mm 2 mps 746 mmHg 98%
    06:00 +7°C° 0 mm 2 mps 746 mmHg 98%
    07:00 +8°C° 0 mm 2 mps 746 mmHg 93%
    08:00 +9°C° 0 mm 2 mps 747 mmHg 88%
    09:00 +11°C° 0 mm 3 mps 747 mmHg 84%
    10:00 +12°C° 0 mm 3 mps 747 mmHg 76%
    11:00 +13°C° 0 mm 3 mps 747 mmHg 69%
    12:00 +15°C° 0 mm 4 mps 747 mmHg 62%
    13:00 +15°C° 0 mm 4 mps 747 mmHg 59%
    14:00 +15°C° 0 mm 4 mps 747 mmHg 57%
    15:00 +15°C° 0 mm 4 mps 746 mmHg 55%
    16:00 +14°C° 0 mm 3 mps 747 mmHg 62%
    17:00 +13°C° 0 mm 2 mps 747 mmHg 69%
    18:00 +11°C° 0 mm 1 mps 748 mmHg 76%
    19:00 +10°C° 0 mm 1 mps 748 mmHg 79%
    20:00 +10°C° 0 mm 1 mps 749 mmHg 82%
    21:00 +9°C° 0 mm 1 mps 749 mmHg 84%
    22:00 +8°C° 0 mm 1 mps 749 mmHg 86%
    23:00 +8°C° 0 mm 1 mps 750 mmHg 87%

    26 September, Wednesday

    Time Temperature Precipitation Wind Pressure Humidity
    00:00 +8°C° 0 mm 1 mps 750 mmHg 88%
    01:00 +7°C° 0 mm 1 mps 750 mmHg 90%
    02:00 +7°C° 0 mm 1 mps 750 mmHg 91%
    03:00 +7°C° 0 mm 1 mps 750 mmHg 92%
    04:00 +7°C° 0 mm 1 mps 751 mmHg 93%
    05:00 +6°C° 0 mm 1 mps 751 mmHg 94%
    06:00 +6°C° 0 mm 1 mps 751 mmHg 94%
    07:00 +9°C° 0 mm 1 mps 752 mmHg 85%
    08:00 +11°C° 0 mm 1 mps 752 mmHg 76%
    09:00 +14°C° 0 mm 1 mps 752 mmHg 68%
    10:00 +15°C° 0 mm 1 mps 752 mmHg 62%
    11:00 +16°C° 0 mm 2 mps 752 mmHg 56%
    12:00 +17°C° 0 mm 2 mps 752 mmHg 50%
    13:00 +17°C° 0 mm 2 mps 752 mmHg 50%
    14:00 +17°C° 0 mm 2 mps 751 mmHg 50%
    15:00 +17°C° 0 mm 2 mps 751 mmHg 50%
    16:00 +15°C° 0 mm 2 mps 751 mmHg 59%
    17:00 +13°C° 0 mm 1 mps 752 mmHg 69%
    18:00 +11°C° 0 mm 1 mps 752 mmHg 78%
    19:00 +10°C° 0 mm 1 mps 752 mmHg 80%
    20:00 +8°C° 0 mm 0 mps 753 mmHg 83%
    21:00 +7°C° 0 mm 0 mps 753 mmHg 86%
    22:00 +7°C° 0 mm 0 mps 753 mmHg 87%
    23:00 +8°C° 0 mm 1 mps 753 mmHg 88%

    27 September, Thursday

    Time Temperature Precipitation Wind Pressure Humidity
    00:00 +7°C° 0 mm 1 mps 753 mmHg 89%
    01:00 +7°C° 0 mm 1 mps 753 mmHg 90%
    02:00 +7°C° 0 mm 1 mps 753 mmHg 91%
    03:00 +6°C° 0 mm 1 mps 753 mmHg 91%
    04:00 +6°C° 0 mm 1 mps 753 mmHg 92%
    05:00 +6°C° 0 mm 1 mps 753 mmHg 92%
    06:00 +6°C° 0 mm 1 mps 753 mmHg 92%
    07:00 +9°C° 0 mm 1 mps 753 mmHg 82%
    08:00 +11°C° 0 mm 1 mps 753 mmHg 71%
    09:00 +14°C° 0 mm 1 mps 753 mmHg 61%
    10:00 +15°C° 0 mm 0 mps 753 mmHg 55%
    11:00 +17°C° 0 mm 0 mps 753 mmHg 49%
    12:00 +19°C° 0 mm 0 mps 752 mmHg 43%
    13:00 +19°C° 0 mm 0 mps 752 mmHg 43%
    14:00 +19°C° 0 mm 0 mps 751 mmHg 43%
    15:00 +19°C° 0 mm 0 mps 751 mmHg 43%
    16:00 +16°C° 0 mm 0 mps 751 mmHg 51%
    17:00 +14°C° 0 mm 0 mps 751 mmHg 59%
    18:00 +12°C° 0 mm 0 mps 751 mmHg 67%
    19:00 +11°C° 0 mm 0 mps 752 mmHg 68%
    20:00 +11°C° 0 mm 1 mps 752 mmHg 70%
    21:00 +11°C° 0 mm 1 mps 752 mmHg 72%
    22:00 +11°C° 0 mm 1 mps 752 mmHg 74%
    23:00 +10°C° 0 mm 1 mps 752 mmHg 75%
    Show more